Weather Roundup
Issued by NWS

Home | Current Version | Previous Version | Text Only | Print | Product List | Glossary On
Versions: 1 2 3 4 5 6 7 8 9 10 11 12 13 14 15 16 17 18 19 20 21 22 23 24 25 26 27 28 29 30 31 32 33 34 35 36 37 38 39 40 41 42 43 44 45 46 47 48 49 50
000
NZUS93 KARX 310010
HRRWXR

CURRENT HOURLY OBSERVATIONS ACROSS
MUCH OF THE UPPER MISSISSIPPI VALLEY
NATIONAL WEATHER SERVICE LA CROSSE WI
700 PM CDT THU JUL 30 2015


...SOUTHEAST MINNESOTA...


CITY           SKY/WX    TMP DP  RH WIND       PRES   REMARKS
ROCHESTER      SUNNY     78  62  57 W8        30.06F
ROCHESTER/MAYO FAIR      81  55  41 W10G18    30.05F
WINONA         SUNNY     81  55  41 W7        30.01F
AUSTIN         SUNNY     82  55  39 W8        30.07F
ALBERT LEA     SUNNY     81  61  50 W5        30.07F
DODGE CENTER   SUNNY     79  57  47 W8        30.06F
PRESTON        SUNNY     78  58  50 W10       30.07F
OWATONNA       SUNNY     81  63  54 W5        30.06F
FARIBAULT      SUNNY     81  61  50 W6        30.05F
$$

...ELSEWHERE IN MINNESOTA...


CITY           SKY/WX    TMP DP  RH WIND       PRES   REMARKS
MINNEAPOLIS    MOSUNNY   83  56  39 W15       30.01F
INTNL FALLS    SUNNY     76  53  44 W16G30    29.88S
DULUTH         MOSUNNY   79  53  40 W13G22    29.93S
RED WING       SUNNY     84  55  37 W12       29.99F
REDWOOD FALLS  SUNNY     84  58  40 W10       30.04F
MANKATO        SUNNY     81  57  44 W8        30.05F
WORTHINGTON    SUNNY     81  63  54 W7        30.11F
FAIRMONT       SUNNY     82  59  44 W6        30.08F
$$

...SOUTHWEST WISCONSIN...


CITY           SKY/WX    TMP DP  RH WIND       PRES   REMARKS
LA CROSSE      SUNNY     83  57  41 W12       30.00F
PRAIRIE DU CHI SUNNY     83  51  31 W9        30.02F
BOSCOBEL       SUNNY     84  56  38 W8        30.02F
LONE ROCK      SUNNY     83  54  36 NW10      30.01S
PLATTEVILLE    SUNNY     81  59  46 W8        30.04S
FORT MC COY    SUNNY     82  53  36 W7        30.01F
CAMP DOUGLAS   SUNNY     80  59  49 W12       29.99F
VIROQUA        FAIR      78  55  44 W7        30.04F
WIS DELLS      SUNNY     82  47  29 W12G18    30.00S
$$

...ELSEWHERE IN WISCONSIN...


CITY           SKY/WX    TMP DP  RH WIND       PRES   REMARKS
MILWAUKEE      MOSUNNY   86  49  27 NW14      29.96F
MADISON        SUNNY     83  54  36 W8G20     29.99F
GREEN BAY      MOSUNNY   79  60  52 W8        29.93S
EAU CLAIRE     SUNNY     81  57  43 W9        29.98F
BLACK RVR FLS  FAIR      83  54  37 W10       29.99F
MEDFORD        SUNNY     76  58  52 W10       29.98F
WAUSAU         CLOUDY    73  55  53 N6        29.96R
WIS RAPIDS     MOSUNNY   82  51  34 NW14G22   29.99S
MARSHFIELD     MOSUNNY   79  54  41 W14       29.99S
RICE LAKE      SUNNY     78  55  44 W12       29.99F
$$

...NORTHEAST IOWA...


CITY           SKY/WX    TMP DP  RH WIND       PRES   REMARKS
DECORAH        SUNNY     81  59  47 VRB7      30.05F
MASON CITY     SUNNY     82  65  56 NW7       30.09F
CHARLES CITY   SUNNY     81  64  57 W7        30.08F
OELWEIN        SUNNY     81  64  57 NW5       30.07F
$$

...ELSEWHERE IN IOWA...


CITY           SKY/WX    TMP DP  RH WIND       PRES   REMARKS
DES MOINES     MOSUNNY   85  63  47 W7        30.09F
IOWA CITY      SUNNY     84  66  54 W10       30.07F
FORT DODGE     SUNNY     82  66  57 W5        30.10F
$$

...NORTHERN ILLINOIS...


CITY           SKY/WX    TMP DP  RH WIND       PRES   REMARKS
CHICAGO-OHARE  MOSUNNY   85  52  32 W14       29.99F
CHICAGO-MIDWAY MOSUNNY   87  52  29 W16G22    30.00S
MOLINE         SUNNY     85  64  49 W12       30.04F
ROCKFORD       SUNNY     84  61  45 W9        30.02F
PEORIA         SUNNY     86  63  45 NW10      30.06F
$$

NOTE: "FAIR" INDICATES FEW OR NO CLOUDS BELOW 12,000 FEET WITH NO
SIGNIFICANT WEATHER AND/OR OBSTRUCTIONS TO VISIBILITY. WIND
SPEEDS ARE IN MILES-PER-HOUR.



USA.gov is the U.S. government's official web portal to all federal, state and local government web resources and services.